INSAT-3DR (41752 NORAD) Tracking and Keplerian Element Data

This shows tracking and keplerian element data for the satellite.

Feedback or suggestion? Click here.




ElementValue
Catalog41752
NameINSAT-3DR
Epoch Orbit806
Epoch Day322.63401764
Epoch Year2018
RAAN98.9941
Inclination0.0832
Eccentricity0.0013207
Argument of Perigee167.5499
Mean Anonmoly93.339
Mean Motion1.00271468
Decay Rate-6.9E-07
L11 41752U 16054A 18322.63401764 -.00000069 00000-0 00000-0 0 9998
L22 41752 0.0832 98.9941 0013207 167.5499 93.3390 1.00271468 8068

Live tracking and technical data element details for INSAT-3DR (NORAD 41752). INSAT-3DR can be tracked NOW for your location showing map with azimuth and elevation plus other details from your city location.

Track the satellite on the map from your city or location and see movement details for azimuth, elevation, latitude, longitude, range, height, and movement on the map or in text.







IsCatalogInMostPopularTable: catalog: 41752, numindb: 117
Update: records affected: 1



GetName: 41752 INSAT-3DR

Hit Count: updated at: Mon, 19 Nov 2018 14:08:00 GMT